Regional Weather Roundup
Issued by NWS Northern Indiana

Home | Current Version | Previous Version | Text Only | Print | Product List | Glossary On
Versions: 1 2 3 4 5 6 7 8 9 10 11 12 13 14 15 16 17 18 19 20 21 22 23 24 25 26 27 28 29 30 31 32 33 34 35 36 37 38 39 40 41 42 43 44 45 46 47 48 49 50
000
ASUS43 KIWX 130910
RWRIWX

KIWX WEATHER ROUNDUP
NATIONAL WEATHER SERVICE NORTHERN INDIANA
400 AM EST WED DEC 13 2017

NOTE: "FAIR" INDICATES FEW OR NO CLOUDS BELOW 12,000 FEET WITH NO
SIGNIFICANT WEATHER AND/OR OBSTRUCTIONS TO VISIBILITY.

* THESE STATIONS ARE NOT UNDER NWS QUALITY CONTROL. THEY ALSO MAY NOT
  REPORT WEATHER SUCH AS PRECIPITATION OR FOG.

INZ001>027-131000-
NORTHERN INDIANA

CITY           SKY/WX    TMP DP  RH WIND       PRES   REMARKS
GARY*          CLOUDY    24   9  53 S5        29.86F WCI  18
VALPARAISO     CLOUDY    21  11  65 S7        29.86F WCI  12
MICHIGAN CITY* CLOUDY    21   9  58 S3        29.86F
LAPORTE*       CLOUDY    18  11  73 S5        29.86F WCI  11
KNOX*          CLOUDY    19  12  73 S6        29.88F WCI  11
SOUTH BEND     CLOUDY    17  10  74 SW9       29.85F WCI   6
GOSHEN         CLOUDY    16   8  71 SW8       29.86F WCI   5
MONTICELLO*    CLOUDY    20   8  60 S8        29.89F WCI  10
LOGANSPORT*    CLOUDY    19  10  68 S8        29.91S WCI   9
ROCHESTER*     CLOUDY    21  12  68 SW6       29.88F WCI  14
WARSAW*        CLOUDY    18   9  68 SW6       29.88S WCI   9
AUBURN*        PTCLDY    16   9  73 SW5       29.88S WCI   9
FORT WAYNE     MOCLDY    14   9  80 SW7       29.89F WCI   4
HUNTINGTON*    CLOUDY    18   8  63 SW5       29.89F WCI  11
PERU/GRISSOM   CLOUDY    18  10  68 SW6       29.89F WCI  10
MARION*        CLOUDY    17  11  78 SW9       29.91F HAZE    WCI   5

$$
INZ028>050-131000-
CENTRAL INDIANA

CITY           SKY/WX    TMP DP  RH WIND       PRES   REMARKS
LAFAYETTE      CLOUDY    20  11  68 S5        29.91F WCI  13
KOKOMO*        CLOUDY    18  10  71 S8        29.91F WCI   8
MUNCIE*        MOCLDY    18   9  68 SW6       29.91F WCI  10
INDIANAPOLIS   CLOUDY    20   8  60 S3        29.95R

$$
MIZ043>046-050>051-056>058-064>065-071>073-077>080-131000-
SOUTHWEST LOWER MICHIGAN

CITY           SKY/WX    TMP DP  RH WIND       PRES   REMARKS
BATTLE CREEK   CLOUDY    15  12  88 S6        29.83F WCI   6
BENTON HARBOR  CLOUDY    24  10  55 SW6       29.84F WCI  17
COLDWATER*     CLOUDY    16  13  88 S3        29.84F
HILLSDALE*     LGT SNOW  18  12  79 SW3       29.81F
HOLLAND        CLOUDY    17  13  84 SE5       29.83F WCI  10
GRAND RAPIDS   CLOUDY    17  15  92 S7        29.82F WCI   8
KALAMAZOO      CLOUDY    16  13  88 S6        29.83F WCI   7
STURGIS*       CLOUDY    12   8  83 SW3       29.84F
THREE RIVERS*  FAIR      16  11  80 S6        29.85S WCI   7

$$
OHZ001>008-015>018-024>025-131000-
NORTHWEST OHIO

CITY           SKY/WX    TMP DP  RH WIND       PRES   REMARKS
WAUSEON*       CLOUDY    18  14  86 SW9       29.87S WCI   6
DEFIANCE       CLOUDY    16  10  77 SW6       29.89S WCI   7
FINDLAY        CLOUDY    19  10  68 SW8       29.88S WCI   9
TOLEDO EXPRESS CLOUDY    18  12  77 W9        29.88R WCI   7
TOLEDO METCALF CLOUDY    19  10  68 W9        29.89S WCI   8
LIMA           PTCLDY    14   9  80 W12       29.89S WCI   0

$$
AND FOR LAKE MICHIGAN COASTAL AND OPEN LAKE BUOY OBSERVATIONS

STATION/POSITION TEMP    WIND        PRES    VSBY  WAVE
                 AIR SEA DIR/SP/G                  HT/PER
                 (F)     (DEG/KT/KT) (MB)    (MI)  (FT/S)
CALUMET HARBOR    22     170/  8/ 10 1010.1F
MICHIGAN CITY     20     190/ 10/ 11   N/A
BURNS HARBOR      22     180/  8/ 15 1011.9F
SAINT JOSEPH      26     240/ 10/ 14 1011.2

$$
&&



USA.gov is the U.S. government's official web portal to all federal, state and local government web resources and services.